South Sheridan, Arkansas
Current Conditions -  °F | °C
As of 7:53 AM on Saturday 20 Dec 2014 (Local Time) from KPBF Reporting Station
Overcast Overcast  
Wind Chill: 35°   Ceiling: 5500
Heat Index: 40°   Visibility: 9mi
Dew Point: 36°   Wind: 7mph
Humidity: 86%   Direction: 30°NNE
Pressure: 30.27"   Gusts: NA
Location:  34.3151°N, 92.3357°W
Report Text: KPBF 201353Z AUTO 03006KT 9SM OVC055 04/02 A3027 RMK AO2 SLP250 T00440022
Loading
Personal Weather Stations






























Interactive Weather Map New forecast layout! Learn more

10-Day Weather Forecast

Advertisements
Track Severe Weather on mobile